• In Belarus
  • List of Countries
  • For 7 days
  • Water Temperature
  • Weather Map
  • Weather Widgets
  • user-avatar
    Login

    Hourly Weather Prutz

    Today, 16 September, Monday

    Time Temperature Precipitation Wind Pressure Humidity
    00:00 +11°C° 0 mm 1 mps 638 mmHg 87%
    01:00 +11°C° 0 mm 1 mps 638 mmHg 89%
    02:00 +11°C° 0 mm 1 mps 638 mmHg 88%
    03:00 +11°C° 0 mm 1 mps 638 mmHg 87%
    04:00 +10°C° 0 mm 1 mps 637 mmHg 87%
    05:00 +11°C° 0 mm 1 mps 637 mmHg 82%
    06:00 +12°C° 0 mm 1 mps 638 mmHg 78%
    07:00 +13°C° 0 mm 1 mps 638 mmHg 73%
    08:00 +16°C° 0 mm 1 mps 639 mmHg 65%
    09:00 +19°C° 0 mm 1 mps 639 mmHg 56%
    10:00 +21°C° 0 mm 1 mps 640 mmHg 47%
    11:00 +22°C° 0 mm 1 mps 640 mmHg 46%
    12:00 +23°C° 0 mm 2 mps 640 mmHg 45%
    13:00 +23°C° 0 mm 2 mps 640 mmHg 43%
    14:00 +23°C° 0 mm 2 mps 639 mmHg 46%
    15:00 +21°C° 0 mm 2 mps 639 mmHg 48%
    16:00 +21°C° 0 mm 2 mps 639 mmHg 51%
    17:00 +18°C° 0.1 mm 2 mps 638 mmHg 63%
    18:00 +16°C° 0.1 mm 1 mps 637 mmHg 75%
    19:00 +13°C° 0.1 mm 1 mps 636 mmHg 87%
    20:00 +13°C° 0 mm 1 mps 636 mmHg 88%
    21:00 +12°C° 0 mm 1 mps 636 mmHg 89%
    22:00 +12°C° 0 mm 1 mps 636 mmHg 90%
    23:00 +11°C° 0 mm 1 mps 636 mmHg 90%

    Tomorrow, 17 September, Tuesday

    Time Temperature Precipitation Wind Pressure Humidity
    00:00 +11°C° 0 mm 1 mps 636 mmHg 90%
    01:00 +11°C° 0 mm 1 mps 636 mmHg 90%
    02:00 +11°C° 0 mm 1 mps 635 mmHg 89%
    03:00 +10°C° 0 mm 1 mps 635 mmHg 89%
    04:00 +10°C° 0 mm 1 mps 634 mmHg 89%
    05:00 +11°C° 0 mm 1 mps 635 mmHg 88%
    06:00 +12°C° 0 mm 1 mps 635 mmHg 88%
    07:00 +12°C° 0 mm 1 mps 635 mmHg 87%
    08:00 +14°C° 0 mm 1 mps 636 mmHg 77%
    09:00 +16°C° 0 mm 1 mps 637 mmHg 68%
    10:00 +19°C° 0 mm 1 mps 637 mmHg 58%
    11:00 +19°C° 0 mm 2 mps 637 mmHg 54%
    12:00 +19°C° 0 mm 2 mps 637 mmHg 50%
    13:00 +20°C° 0 mm 2 mps 637 mmHg 46%
    14:00 +20°C° 0 mm 2 mps 637 mmHg 49%
    15:00 +19°C° 0 mm 2 mps 637 mmHg 52%
    16:00 +19°C° 0 mm 2 mps 636 mmHg 55%
    17:00 +16°C° 0 mm 2 mps 636 mmHg 67%
    18:00 +14°C° 0 mm 2 mps 635 mmHg 78%
    19:00 +11°C° 0 mm 1 mps 634 mmHg 89%
    20:00 +11°C° 0 mm 1 mps 634 mmHg 91%
    21:00 +10°C° 0 mm 1 mps 635 mmHg 93%
    22:00 +10°C° 0 mm 1 mps 635 mmHg 95%
    23:00 +10°C° 0 mm 1 mps 635 mmHg 95%

    Day after tomorrow, 18 September, Wednesday

    Time Temperature Precipitation Wind Pressure Humidity
    00:00 +10°C° 0 mm 1 mps 635 mmHg 95%
    01:00 +10°C° 0 mm 1 mps 635 mmHg 95%
    02:00 +10°C° 0 mm 1 mps 635 mmHg 95%
    03:00 +9°C° 0 mm 1 mps 635 mmHg 95%
    04:00 +9°C° 0 mm 1 mps 635 mmHg 95%
    05:00 +9°C° 0 mm 1 mps 635 mmHg 94%
    06:00 +10°C° 0 mm 1 mps 636 mmHg 94%
    07:00 +10°C° 0 mm 1 mps 636 mmHg 94%
    08:00 +11°C° 0 mm 1 mps 636 mmHg 86%
    09:00 +12°C° 0 mm 1 mps 637 mmHg 79%
    10:00 +14°C° 0 mm 1 mps 637 mmHg 71%
    11:00 +14°C° 0 mm 1 mps 637 mmHg 69%
    12:00 +15°C° 0 mm 2 mps 637 mmHg 66%
    13:00 +16°C° 0 mm 2 mps 638 mmHg 63%
    14:00 +15°C° 0 mm 2 mps 637 mmHg 66%
    15:00 +15°C° 0 mm 2 mps 637 mmHg 69%
    16:00 +14°C° 0 mm 2 mps 637 mmHg 73%
    17:00 +13°C° 0 mm 2 mps 637 mmHg 78%
    18:00 +12°C° 0 mm 1 mps 636 mmHg 84%
    19:00 +10°C° 0 mm 1 mps 636 mmHg 90%
    20:00 +10°C° 0 mm 1 mps 637 mmHg 90%
    21:00 +9°C° 0 mm 1 mps 637 mmHg 91%
    22:00 +8°C° 0 mm 0 mps 637 mmHg 92%
    23:00 +7°C° 0 mm 0 mps 637 mmHg 93%

    19 September, Thursday

    Time Temperature Precipitation Wind Pressure Humidity
    00:00 +7°C° 0 mm 0 mps 636 mmHg 94%
    01:00 +6°C° 0 mm 0 mps 636 mmHg 94%
    02:00 +6°C° 0 mm 0 mps 636 mmHg 94%
    03:00 +5°C° 0 mm 0 mps 636 mmHg 94%
    04:00 +5°C° 0 mm 0 mps 636 mmHg 94%
    05:00 +6°C° 0 mm 0 mps 636 mmHg 93%
    06:00 +7°C° 0 mm 1 mps 636 mmHg 92%
    07:00 +7°C° 0 mm 1 mps 636 mmHg 91%
    08:00 +9°C° 0 mm 1 mps 637 mmHg 79%
    09:00 +11°C° 0 mm 1 mps 638 mmHg 67%
    10:00 +13°C° 0 mm 2 mps 639 mmHg 55%
    11:00 +14°C° 0 mm 2 mps 639 mmHg 51%
    12:00 +15°C° 0 mm 2 mps 639 mmHg 48%
    13:00 +15°C° 0 mm 2 mps 639 mmHg 45%
    14:00 +15°C° 0 mm 2 mps 639 mmHg 48%
    15:00 +15°C° 0 mm 2 mps 639 mmHg 51%
    16:00 +14°C° 0 mm 2 mps 638 mmHg 54%
    17:00 +12°C° 0 mm 2 mps 638 mmHg 65%
    18:00 +9°C° 0 mm 1 mps 637 mmHg 77%
    19:00 +7°C° 0 mm 1 mps 637 mmHg 88%
    20:00 +6°C° 0 mm 1 mps 637 mmHg 89%
    21:00 +5°C° 0 mm 0 mps 637 mmHg 89%
    22:00 +4°C° 0 mm 0 mps 637 mmHg 90%
    23:00 +4°C° 0 mm 0 mps 637 mmHg 88%

    20 September, Friday

    Time Temperature Precipitation Wind Pressure Humidity
    00:00 +4°C° 0 mm 0 mps 638 mmHg 87%
    01:00 +5°C° 0 mm 1 mps 638 mmHg 85%
    02:00 +5°C° 0 mm 1 mps 637 mmHg 84%
    03:00 +4°C° 0 mm 0 mps 637 mmHg 83%
    04:00 +4°C° 0 mm 0 mps 637 mmHg 82%
    05:00 +5°C° 0 mm 0 mps 637 mmHg 79%
    06:00 +6°C° 0 mm 0 mps 638 mmHg 77%
    07:00 +7°C° 0 mm 0 mps 638 mmHg 74%
    08:00 +11°C° 0 mm 1 mps 639 mmHg 63%
    09:00 +13°C° 0 mm 1 mps 640 mmHg 52%
    10:00 +16°C° 0 mm 1 mps 641 mmHg 41%
    11:00 +18°C° 0 mm 1 mps 641 mmHg 40%
    12:00 +18°C° 0 mm 1 mps 641 mmHg 39%
    13:00 +18°C° 0 mm 2 mps 641 mmHg 37%
    14:00 +18°C° 0 mm 2 mps 640 mmHg 41%
    15:00 +17°C° 0 mm 2 mps 640 mmHg 45%
    16:00 +17°C° 0 mm 2 mps 640 mmHg 48%
    17:00 +14°C° 0 mm 1 mps 639 mmHg 61%
    18:00 +11°C° 0 mm 1 mps 638 mmHg 74%
    19:00 +7°C° 0 mm 0 mps 637 mmHg 86%
    20:00 +8°C° 0 mm 1 mps 637 mmHg 86%
    21:00 +8°C° 0 mm 1 mps 637 mmHg 87%
    22:00 +8°C° 0 mm 1 mps 638 mmHg 87%
    23:00 +8°C° 0 mm 1 mps 638 mmHg 87%

    21 September, Saturday

    Time Temperature Precipitation Wind Pressure Humidity
    00:00 +8°C° 0 mm 1 mps 638 mmHg 88%
    01:00 +8°C° 0 mm 1 mps 637 mmHg 89%
    02:00 +8°C° 0 mm 1 mps 637 mmHg 89%
    03:00 +8°C° 0 mm 1 mps 637 mmHg 89%
    04:00 +8°C° 0 mm 1 mps 637 mmHg 89%
    05:00 +8°C° 0 mm 1 mps 637 mmHg 87%
    06:00 +9°C° 0 mm 1 mps 637 mmHg 86%
    07:00 +9°C° 0 mm 1 mps 637 mmHg 84%
    08:00 +12°C° 0 mm 1 mps 638 mmHg 74%
    09:00 +15°C° 0 mm 1 mps 639 mmHg 64%
    10:00 +18°C° 0 mm 1 mps 640 mmHg 54%
    11:00 +19°C° 0 mm 1 mps 640 mmHg 51%
    12:00 +20°C° 0 mm 1 mps 640 mmHg 48%
    13:00 +21°C° 0 mm 1 mps 640 mmHg 45%
    14:00 +21°C° 0 mm 1 mps 640 mmHg 47%
    15:00 +20°C° 0 mm 1 mps 639 mmHg 50%
    16:00 +19°C° 0 mm 2 mps 639 mmHg 52%
    17:00 +16°C° 0 mm 1 mps 638 mmHg 64%
    18:00 +13°C° 0 mm 1 mps 638 mmHg 76%
    19:00 +11°C° 0 mm 1 mps 637 mmHg 89%
    20:00 +11°C° 0 mm 1 mps 637 mmHg 89%
    21:00 +10°C° 0 mm 1 mps 637 mmHg 89%
    22:00 +9°C° 0 mm 2 mps 637 mmHg 89%
    23:00 +9°C° 0 mm 2 mps 637 mmHg 89%
    Show more